Simultaneous Nadir Overpasses (SNOs) Predictions

Prediction of SNOs near equator between AQUA and NPP Satellite Orbit:

Table of predicted SNOs near equator for the next 14.0 days since TLE Epoch: 10/30/2021
Index Date (AQUA) Time (AQUA) AQUA Lat,Lon Date (NPP) Time (NPP) NPP Lat,Lon Distance(km) Time Diff (sec)
1 10/31/2021 15:36:00 -4.35, 149.29 10/31/2021 15:26:31 -4.28, 149.11 21.99 569
2 10/31/2021 16:24:15 -0.23, -42.11 10/31/2021 16:16:02 -0.32, -42.56 51.68 493
3 10/31/2021 17:12:22 4.79, 126.52 10/31/2021 17:05:24 4.95, 125.80 81.24 418
4 11/03/2021 07:10:13 29.94, 91.62 11/03/2021 07:00:13 30.32, 91.21 57.51 600
5 11/03/2021 07:52:04 -2.71, -94.48 11/03/2021 07:43:02 -2.63, -94.76 32.26 542
6 11/03/2021 08:40:19 -1.87, 74.11 11/03/2021 08:32:33 -1.96, 73.56 62.09 466
7 11/03/2021 09:28:27 6.36,-117.27 11/03/2021 09:21:56 6.54,-118.08 91.42 391
8 11/05/2021 23:20:00 5.59,-146.88 11/05/2021 23:10:10 5.57,-146.99 12.77 590
9 11/06/2021 00:08:08 -1.10, 21.74 11/05/2021 23:59:33 -0.99, 21.37 42.89 515
10 11/06/2021 00:56:22 -3.54,-169.65 11/06/2021 00:49:03 -3.66,-170.29 72.44 439
11 11/08/2021 15:36:02 3.94, -30.65 11/08/2021 15:26:39 3.87, -30.85 23.57 563
12 11/08/2021 16:24:09 0.61, 137.98 11/08/2021 16:16:02 0.70, 137.51 53.39 487
13 11/08/2021 17:12:25 -5.13, -53.44 11/08/2021 17:05:33 -5.30, -54.16 82.93 412
14 11/11/2021 07:09:25 -27.07, -87.63 11/11/2021 06:59:25 -27.11, -87.93 29.95 600
15 11/11/2021 07:52:04 2.25, 85.59 11/11/2021 07:43:09 2.18, 85.29 34.18 535
16 11/11/2021 08:40:11 2.30,-105.78 11/11/2021 08:32:32 2.40,-106.35 64.16 459
17 11/11/2021 09:28:27 -6.82, 62.81 11/11/2021 09:22:03 -6.99, 61.98 93.32 384
